Time,TemperatureF,DewpointF,PressureIn,WindDirection,WindDirectionDegrees,WindSpeedMPH,WindSpeedGustMPH,Humidity,HourlyPrecipIn,Conditions,Clouds,dailyrainin,SoftwareType,DateUTC
2013-04-05 00:03:00,39.0,37.0,29.95,North,5,0.0,1.0,94,0.00,,,0.68,,2013-04-05 04:03:00,
2013-04-05 00:13:00,39.0,37.0,29.95,North,5,0.0,1.0,94,0.00,,,0.68,,2013-04-05 04:13:00,
2013-04-05 00:23:00,39.0,37.0,29.95,North,5,0.0,3.0,94,0.00,,,0.68,,2013-04-05 04:23:00,
2013-04-05 00:33:00,39.0,37.0,29.95,North,5,1.0,3.0,94,0.00,,,0.68,,2013-04-05 04:33:00,
2013-04-05 00:42:00,39.0,37.0,29.95,North,5,1.0,3.0,94,0.00,,,0.68,,2013-04-05 04:42:00,
2013-04-05 00:52:00,39.0,37.0,29.95,North,5,0.0,3.0,94,0.00,,,0.68,,2013-04-05 04:52:00,
2013-04-05 01:02:00,39.0,37.0,29.96,North,5,0.0,2.0,94,0.00,,,0.68,,2013-04-05 05:02:00,
2013-04-05 01:13:00,39.0,37.0,29.96,North,5,0.0,2.0,94,0.00,,,0.68,,2013-04-05 05:13:00,
2013-04-05 01:22:00,39.0,37.0,29.96,North,5,0.0,3.0,93,0.00,,,0.68,,2013-04-05 05:22:00,
2013-04-05 01:32:00,39.0,37.0,29.95,North,5,0.0,2.0,93,0.00,,,0.68,,2013-04-05 05:32:00,
2013-04-05 01:42:00,39.0,37.0,29.95,North,5,0.0,2.0,93,0.00,,,0.68,,2013-04-05 05:42:00,
2013-04-05 01:52:00,39.0,37.0,29.95,North,5,0.0,1.0,93,0.00,,,0.68,,2013-04-05 05:52:00,
2013-04-05 02:02:00,39.0,37.0,29.95,North,5,0.0,0.0,93,0.00,,,0.68,,2013-04-05 06:02:00,
2013-04-05 02:12:00,39.0,37.0,29.95,North,5,0.0,0.0,93,0.00,,,0.68,,2013-04-05 06:12:00,
2013-04-05 02:22:00,39.0,37.0,29.94,North,5,0.0,0.0,93,0.00,,,0.68,,2013-04-05 06:22:00,
2013-04-05 02:32:00,39.0,37.0,29.94,North,5,0.0,0.0,93,0.00,,,0.68,,2013-04-05 06:32:00,
2013-04-05 02:42:00,39.0,37.0,29.94,North,5,0.0,0.0,93,0.00,,,0.68,,2013-04-05 06:42:00,
2013-04-05 02:52:00,38.0,36.0,29.95,North,5,0.0,0.0,93,0.00,,,0.68,,2013-04-05 06:52:00,
2013-04-05 03:03:00,38.0,36.0,29.95,North,5,0.0,0.0,93,0.00,,,0.68,,2013-04-05 07:03:00,
2013-04-05 03:12:00,38.0,36.0,29.95,North,5,0.0,0.0,93,0.00,,,0.68,,2013-04-05 07:12:00,
2013-04-05 03:22:00,37.0,35.0,29.94,North,5,0.0,0.0,94,0.00,,,0.68,,2013-04-05 07:22:00,
2013-04-05 03:32:00,37.0,35.0,29.94,North,5,0.0,0.0,94,0.00,,,0.68,,2013-04-05 07:32:00,
2013-04-05 03:42:00,37.0,35.0,29.94,North,5,0.0,0.0,94,0.00,,,0.68,,2013-04-05 07:42:00,
2013-04-05 03:52:00,38.0,37.0,29.92,North,5,0.0,0.0,95,0.00,,,0.68,,2013-04-05 07:52:00,
2013-04-05 04:03:00,38.0,37.0,29.92,North,5,0.0,0.0,96,0.00,,,0.68,,2013-04-05 08:03:00,
2013-04-05 04:13:00,38.0,37.0,29.92,North,5,0.0,0.0,96,0.00,,,0.68,,2013-04-05 08:13:00,
2013-04-05 04:33:00,38.0,37.0,29.89,North,5,0.0,2.0,96,0.00,,,0.68,,2013-04-05 08:33:00,
2013-04-05 04:43:00,38.0,37.0,29.89,North,5,0.0,2.0,96,0.00,,,0.68,,2013-04-05 08:43:00,
2013-04-05 04:52:00,38.0,37.0,29.89,North,5,0.0,0.0,96,0.00,,,0.68,,2013-04-05 08:52:00,
2013-04-05 05:02:00,37.0,36.0,29.88,North,5,0.0,0.0,95,0.00,,,0.68,,2013-04-05 09:02:00,
2013-04-05 05:12:00,37.0,36.0,29.88,North,5,0.0,0.0,95,0.00,,,0.68,,2013-04-05 09:12:00,
2013-04-05 05:22:00,37.0,36.0,29.88,North,5,0.0,0.0,95,0.00,,,0.68,,2013-04-05 09:22:00,
2013-04-05 05:33:00,36.0,35.0,29.88,North,5,0.0,0.0,95,0.00,,,0.68,,2013-04-05 09:33:00,
2013-04-05 05:43:00,36.0,35.0,29.88,North,5,0.0,0.0,95,0.00,,,0.68,,2013-04-05 09:43:00,
2013-04-05 05:52:00,36.0,34.0,29.88,North,5,0.0,0.0,94,0.00,,,0.68,,2013-04-05 09:52:00,
2013-04-05 06:03:00,35.0,33.0,29.88,North,5,0.0,0.0,94,0.00,,,0.68,,2013-04-05 10:03:00,
2013-04-05 06:13:00,35.0,33.0,29.88,North,5,0.0,0.0,94,0.00,,,0.68,,2013-04-05 10:13:00,
2013-04-05 06:23:00,35.0,33.0,29.89,North,5,0.0,0.0,94,0.00,,,0.68,,2013-04-05 10:23:00,
2013-04-05 06:33:00,35.0,33.0,29.90,North,5,0.0,0.0,94,0.00,,,0.67,,2013-04-05 10:33:00,
2013-04-05 06:43:00,35.0,33.0,29.90,North,5,0.0,0.0,94,0.00,,,0.67,,2013-04-05 10:43:00,
2013-04-05 06:52:00,34.0,32.0,29.92,North,5,0.0,0.0,94,0.00,,,0.67,,2013-04-05 10:52:00,
2013-04-05 07:03:00,34.0,33.0,29.93,North,5,0.0,0.0,95,0.00,,,0.67,,2013-04-05 11:03:00,
2013-04-05 07:13:00,34.0,33.0,29.93,North,5,0.0,0.0,95,0.00,,,0.67,,2013-04-05 11:13:00,
2013-04-05 07:22:00,34.0,33.0,29.95,North,5,0.0,1.0,95,0.00,,,0.67,,2013-04-05 11:22:00,
2013-04-05 07:33:00,35.0,34.0,29.95,North,5,0.0,0.0,96,0.00,,,0.67,,2013-04-05 11:33:00,
2013-04-05 07:42:00,35.0,34.0,29.95,North,5,0.0,0.0,96,0.00,,,0.67,,2013-04-05 11:42:00,
2013-04-05 07:52:00,35.0,34.0,29.97,North,5,0.0,0.0,96,0.00,,,0.67,,2013-04-05 11:52:00,
2013-04-05 08:02:00,36.0,35.0,29.97,North,5,0.0,2.0,96,0.00,,,0.67,,2013-04-05 12:02:00,
2013-04-05 08:12:00,36.0,35.0,29.97,North,5,0.0,2.0,96,0.00,,,0.67,,2013-04-05 12:12:00,
2013-04-05 08:22:00,36.0,35.0,29.97,North,5,0.0,2.0,97,0.00,,,0.67,,2013-04-05 12:22:00,
2013-04-05 08:32:00,37.0,36.0,29.97,North,5,0.0,1.0,97,0.00,,,0.67,,2013-04-05 12:32:00,
2013-04-05 08:42:00,37.0,36.0,29.97,North,5,0.0,1.0,97,0.00,,,0.67,,2013-04-05 12:42:00,
2013-04-05 08:52:00,37.0,36.0,29.97,North,5,0.0,1.0,97,0.00,,,0.67,,2013-04-05 12:52:00,
2013-04-05 09:02:00,38.0,37.0,29.96,North,5,0.0,2.0,97,0.00,,,0.67,,2013-04-05 13:02:00,
2013-04-05 09:12:00,38.0,37.0,29.96,North,5,0.0,2.0,97,0.00,,,0.67,,2013-04-05 13:12:00,
2013-04-05 09:23:00,38.0,37.0,29.97,North,5,0.0,2.0,97,0.00,,,0.67,,2013-04-05 13:23:00,
2013-04-05 09:32:00,39.0,38.0,29.96,North,5,0.0,2.0,97,0.00,,,0.67,,2013-04-05 13:32:00,
2013-04-05 09:42:00,39.0,38.0,29.96,North,5,0.0,2.0,97,0.00,,,0.67,,2013-04-05 13:42:00,
2013-04-05 09:52:00,41.0,40.0,29.96,North,5,0.0,3.0,98,0.00,,,0.67,,2013-04-05 13:52:00,
2013-04-05 10:03:00,46.0,45.0,29.96,North,5,2.0,6.0,95,0.00,,,0.67,,2013-04-05 14:03:00,
2013-04-05 10:12:00,46.0,45.0,29.96,North,5,2.0,6.0,95,0.00,,,0.67,,2013-04-05 14:12:00,
2013-04-05 10:23:00,49.0,44.0,29.96,North,5,2.0,5.0,84,0.00,,,0.67,,2013-04-05 14:23:00,
2013-04-05 10:37:00,51.0,45.0,29.95,North,5,0.0,7.0,79,0.00,,,0.66,,2013-04-05 14:37:00,
2013-04-05 10:43:00,51.0,45.0,29.95,North,5,0.0,7.0,79,0.00,,,0.66,,2013-04-05 14:43:00,
2013-04-05 10:52:00,52.0,44.0,29.96,North,5,1.0,7.0,74,0.00,,,0.66,,2013-04-05 14:52:00,
2013-04-05 11:02:00,53.0,44.0,29.96,North,5,3.0,7.0,71,0.00,,,0.66,,2013-04-05 15:02:00,
2013-04-05 11:13:00,53.0,44.0,29.96,North,5,3.0,7.0,71,0.00,,,0.66,,2013-04-05 15:13:00,
2013-04-05 11:23:00,54.0,44.0,29.97,North,5,2.0,8.0,68,0.00,,,0.66,,2013-04-05 15:23:00,
2013-04-05 11:33:00,54.0,43.0,29.96,North,5,4.0,8.0,66,0.00,,,0.66,,2013-04-05 15:33:00,
2013-04-05 11:43:00,54.0,43.0,29.96,North,5,4.0,8.0,66,0.00,,,0.66,,2013-04-05 15:43:00,
2013-04-05 11:53:00,55.0,44.0,29.96,North,5,1.0,6.0,67,0.00,,,0.66,,2013-04-05 15:53:00,
2013-04-05 12:03:00,55.0,43.0,29.97,North,5,2.0,9.0,63,0.00,,,0.66,,2013-04-05 16:03:00,
2013-04-05 12:14:00,55.0,43.0,29.97,North,5,2.0,9.0,63,0.00,,,0.66,,2013-04-05 16:14:00,
2013-04-05 12:23:00,55.0,44.0,29.97,North,5,1.0,10.0,66,0.00,,,0.66,,2013-04-05 16:23:00,
2013-04-05 12:33:00,57.0,44.0,29.96,North,5,1.0,6.0,62,0.00,,,0.60,,2013-04-05 16:33:00,
2013-04-05 12:42:00,57.0,44.0,29.96,North,5,1.0,6.0,62,0.00,,,0.60,,2013-04-05 16:42:00,
2013-04-05 12:52:00,57.0,44.0,29.96,North,5,3.0,7.0,62,0.00,,,0.60,,2013-04-05 16:52:00,
2013-04-05 13:04:00,57.0,44.0,29.96,North,5,0.0,6.0,62,0.00,,,0.60,,2013-04-05 17:04:00,
2013-04-05 13:13:00,57.0,44.0,29.96,North,5,0.0,6.0,62,0.00,,,0.60,,2013-04-05 17:13:00,
2013-04-05 13:23:00,58.0,44.0,29.96,North,5,3.0,8.0,59,0.00,,,0.60,,2013-04-05 17:23:00,
2013-04-05 13:33:00,58.0,44.0,29.95,North,5,1.0,5.0,59,0.00,,,0.48,,2013-04-05 17:33:00,
2013-04-05 13:45:00,58.0,44.0,29.95,North,5,1.0,5.0,59,0.00,,,0.48,,2013-04-05 17:45:00,
2013-04-05 13:52:00,58.0,43.0,29.95,North,5,1.0,6.0,58,0.00,,,0.48,,2013-04-05 17:52:00,
2013-04-05 14:03:00,58.0,44.0,29.94,North,5,3.0,6.0,60,0.00,,,0.48,,2013-04-05 18:03:00,
2013-04-05 14:13:00,58.0,44.0,29.94,North,5,3.0,6.0,60,0.00,,,0.48,,2013-04-05 18:13:00,
2013-04-05 14:23:00,60.0,44.0,29.94,North,5,2.0,6.0,55,0.00,,,0.48,,2013-04-05 18:23:00,
2013-04-05 14:42:00,62.0,44.0,29.93,North,5,5.0,8.0,51,0.00,,,0.44,,2013-04-05 18:42:00,
2013-04-05 14:43:00,60.0,43.0,29.94,North,5,3.0,7.0,54,0.00,,,0.44,,2013-04-05 18:43:00,
2013-04-05 14:52:00,61.0,44.0,29.93,North,5,1.0,6.0,53,0.00,,,0.44,,2013-04-05 18:52:00,
2013-04-05 15:02:00,62.0,44.0,29.93,North,5,5.0,8.0,51,0.00,,,0.44,,2013-04-05 19:02:00,
2013-04-05 15:13:00,62.0,44.0,29.93,North,5,5.0,8.0,51,0.00,,,0.44,,2013-04-05 19:13:00,
2013-04-05 15:23:00,62.0,44.0,29.93,North,5,5.0,8.0,51,0.00,,,0.44,,2013-04-05 19:23:00,
2013-04-05 15:33:00,62.0,44.0,29.93,North,5,5.0,8.0,51,0.00,,,0.44,,2013-04-05 19:33:00,
2013-04-05 16:22:00,63.0,40.0,29.91,North,5,2.0,5.0,42,0.00,,,0.31,,2013-04-05 20:22:00,
2013-04-05 16:33:00,63.0,40.0,29.91,North,5,2.0,5.0,42,0.00,,,0.31,,2013-04-05 20:33:00,
2013-04-05 16:42:00,63.0,40.0,29.91,North,5,2.0,5.0,42,0.00,,,0.31,,2013-04-05 20:42:00,
2013-04-05 16:52:00,65.0,32.0,29.91,North,5,2.0,7.0,29,0.00,,,0.17,,2013-04-05 20:52:00,
2013-04-05 17:03:00,66.0,31.0,29.90,North,5,3.0,8.0,27,0.00,,,0.17,,2013-04-05 21:03:00,
2013-04-05 17:13:00,66.0,31.0,29.90,North,5,3.0,8.0,27,0.00,,,0.17,,2013-04-05 21:13:00,
2013-04-05 17:24:00,66.0,29.0,29.90,North,5,2.0,7.0,25,0.00,,,0.17,,2013-04-05 21:24:00,
2013-04-05 17:34:00,66.0,28.0,29.90,North,5,2.0,5.0,24,0.00,,,0.07,,2013-04-05 21:34:00,
2013-04-05 17:43:00,66.0,28.0,29.90,North,5,2.0,5.0,24,0.00,,,0.07,,2013-04-05 21:43:00,
2013-04-05 17:53:00,66.0,28.0,29.91,North,5,2.0,6.0,24,0.00,,,0.07,,2013-04-05 21:53:00,
2013-04-05 18:03:00,66.0,29.0,29.91,North,5,3.0,8.0,25,0.00,,,0.07,,2013-04-05 22:03:00,
2013-04-05 18:13:00,66.0,29.0,29.91,North,5,3.0,8.0,25,0.00,,,0.07,,2013-04-05 22:13:00,
2013-04-05 18:23:00,66.0,29.0,29.91,North,5,2.0,6.0,25,0.00,,,0.07,,2013-04-05 22:23:00,
2013-04-05 18:33:00,66.0,30.0,29.92,North,5,2.0,6.0,26,0.00,,,0.04,,2013-04-05 22:33:00,
2013-04-05 18:43:00,66.0,30.0,29.92,North,5,2.0,6.0,26,0.00,,,0.04,,2013-04-05 22:43:00,
2013-04-05 18:52:00,66.0,32.0,29.92,North,5,1.0,6.0,28,0.00,,,0.04,,2013-04-05 22:52:00,
2013-04-05 19:03:00,65.0,32.0,29.93,North,5,1.0,5.0,29,0.00,,,0.04,,2013-04-05 23:03:00,
2013-04-05 19:13:00,65.0,32.0,29.93,North,5,1.0,5.0,29,0.00,,,0.04,,2013-04-05 23:13:00,
2013-04-05 19:23:00,64.0,31.0,29.93,North,5,2.0,5.0,29,0.00,,,0.04,,2013-04-05 23:23:00,
2013-04-05 19:33:00,63.0,33.0,29.93,North,5,2.0,6.0,33,0.00,,,0.02,,2013-04-05 23:33:00,
2013-04-05 19:42:00,63.0,33.0,29.93,North,5,2.0,6.0,33,0.00,,,0.02,,2013-04-05 23:42:00,
2013-04-05 19:52:00,62.0,35.0,29.94,North,5,1.0,4.0,36,0.00,,,0.02,,2013-04-05 23:52:00,
2013-04-05 20:03:00,61.0,38.0,29.95,North,5,1.0,4.0,43,0.00,,,0.02,,2013-04-06 00:03:00,
2013-04-05 20:13:00,61.0,38.0,29.95,North,5,1.0,4.0,43,0.00,,,0.02,,2013-04-06 00:13:00,
2013-04-05 20:23:00,59.0,39.0,29.96,North,5,0.0,1.0,47,0.00,,,0.02,,2013-04-06 00:23:00,
2013-04-05 20:33:00,57.0,41.0,29.96,North,5,0.0,1.0,56,0.00,,,0.00,,2013-04-06 00:33:00,
2013-04-05 20:42:00,57.0,41.0,29.96,North,5,0.0,1.0,56,0.00,,,0.00,,2013-04-06 00:42:00,
2013-04-05 20:52:00,55.0,41.0,29.97,North,5,0.0,1.0,59,0.00,,,0.00,,2013-04-06 00:52:00,
2013-04-05 21:02:00,53.0,40.0,29.98,North,5,0.0,4.0,62,0.00,,,0.00,,2013-04-06 01:02:00,
2013-04-05 21:13:00,53.0,40.0,29.98,North,5,0.0,4.0,62,0.00,,,0.00,,2013-04-06 01:13:00,
2013-04-05 21:23:00,51.0,40.0,29.99,North,5,0.0,1.0,66,0.00,,,0.00,,2013-04-06 01:23:00,
2013-04-05 21:33:00,50.0,40.0,29.99,North,5,0.0,2.0,68,0.00,,,0.00,,2013-04-06 01:33:00,
2013-04-05 21:43:00,50.0,40.0,29.99,North,5,0.0,2.0,68,0.00,,,0.00,,2013-04-06 01:43:00,
2013-04-05 21:52:00,49.0,40.0,30.00,North,5,0.0,0.0,71,0.00,,,0.00,,2013-04-06 01:52:00,
2013-04-05 22:02:00,49.0,41.0,30.01,North,5,0.0,0.0,73,0.00,,,0.00,,2013-04-06 02:02:00,
2013-04-05 22:12:00,49.0,41.0,30.01,North,5,0.0,0.0,73,0.00,,,0.00,,2013-04-06 02:12:00,
2013-04-05 22:23:00,48.0,40.0,30.01,North,5,0.0,1.0,73,0.00,,,0.00,,2013-04-06 02:23:00,
2013-04-05 22:33:00,47.0,39.0,30.01,North,5,0.0,2.0,73,0.00,,,0.00,,2013-04-06 02:33:00,
2013-04-05 22:42:00,47.0,39.0,30.01,North,5,0.0,2.0,73,0.00,,,0.00,,2013-04-06 02:42:00,
2013-04-05 22:52:00,47.0,40.0,30.01,North,5,0.0,1.0,76,0.00,,,0.00,,2013-04-06 02:52:00,
2013-04-05 23:03:00,47.0,40.0,30.02,North,5,0.0,1.0,77,0.00,,,0.00,,2013-04-06 03:03:00,
2013-04-05 23:13:00,47.0,40.0,30.02,North,5,0.0,1.0,77,0.00,,,0.00,,2013-04-06 03:13:00,
2013-04-05 23:23:00,46.0,40.0,30.02,North,5,0.0,0.0,78,0.00,,,0.00,,2013-04-06 03:23:00,
2013-04-05 23:34:00,46.0,40.0,30.02,North,5,0.0,0.0,78,0.00,,,0.00,,2013-04-06 03:34:00,
2013-04-05 23:43:00,46.0,40.0,30.02,North,5,0.0,0.0,78,0.00,,,0.00,,2013-04-06 03:43:00,
2013-04-05 23:53:00,46.0,40.0,30.02,North,5,0.0,0.0,80,0.00,,,0.00,,2013-04-06 03:53:00,